Wind_Speed
42 43 43 44 44 44 43 42 42 42 42 43 43 44 44 44 45 45 45 45 45 45 45 44 44 43 43 43 42 42 42 42 41 38 36 38 36 32 32 31 31 31 31 32 34 36 36 35 35 34 32 31 31 32 32 32 32 32 31 29 25 22 22 23 25 27 28 28 27 25 25 26 27 28 28 26 26 26 25 25 25 25 23 21 20 20 19 16
42 43 43 44 44 44 44 44 43 43 42 42 43 44 43 44 44 44 45 45 45 44 44 44 44 44 43 43 42 42 42 42 41 37 37 41 37 33 33 32 31 30 30 32 33 35 36 36 35 34 33 32 31 32 32 32 33 31 30 27 22 21 24 26 28 29 30 30 28 24 25 27 28 29 28 27 27 27 26 25 25 24 23 21 19 19 18 16
42 42 42 43 43 44 44 44 44 44 43 42 43 44 44 43 43 44 44 44 44 44 44 44 44 43 43 43 43 42 42 42 40 36 40 42 37 34 34 33 31 30 30 31 32 34 35 36 35 33 33 32 32 32 31 32 32 31 30 24 21 24 28 29 30 31 32 33 30 26 26 28 30 30 29 29 28 27 27 25 24 23 23 21 19 19 17 16
41 42 42 42 42 42 43 43 44 44 44 43 43 43 44 43 42 43 43 43 43 44 44 43 43 43 43 43 43 42 42 42 39 37 42 43 37 36 35 33 32 30 30 30 32 33 34 35 34 33 32 31 32 32 31 32 31 31 28 21 21 27 30 32 33 33 34 35 33 30 28 31 32 31 31 31 28 28 29 26 25 23 22 21 21 20 17 15
39 40 40 41 41 41 42 42 43 44 44 44 43 43 43 43 42 42 42 43 42 42 43 43 43 42 42 43 42 42 42 42 39 39 43 42 38 37 35 34 32 30 29 29 31 33 34 34 35 34 33 32 31 31 31 31 31 31 27 24 26 30 32 33 34 35 35 36 34 31 29 32 34 31 32 30 26 28 30 27 25 22 20 20 21 21 19 17
38 38 39 39 40 41 41 41 42 43 43 43 43 43 43 44 43 41 41 42 42 42 42 42 42 41 42 42 41 41 42 42 40 39 42 41 38 37 36 34 32 31 29 29 30 32 33 34 35 34 34 33 32 30 31 31 31 29 27 28 31 33 34 34 35 36 36 36 35 31 29 32 32 30 31 28 24 27 27 25 23 21 19 20 21 21 19 18
40 39 39 39 39 40 41 41 41 42 42 43 43 43 43 43 43 41 41 41 42 42 41 41 41 40 40 40 40 40 41 41 39 38 40 41 39 38 37 35 33 31 29 29 29 31 33 34 34 34 34 34 32 31 30 30 31 29 28 31 33 34 35 36 36 37 37 37 36 32 31 32 29 29 31 28 24 24 24 23 22 20 20 21 21 20 19 18
43 42 40 40 39 39 40 41 41 41 42 42 42 42 43 43 43 42 40 40 41 42 42 41 40 40 39 39 38 39 38 38 39 38 40 41 40 39 38 36 34 32 30 29 29 31 33 34 35 35 35 33 32 32 31 30 30 29 29 31 33 35 36 37 37 38 38 38 37 33 30 31 29 29 32 29 25 25 25 23 20 20 21 21 21 19 18 18
44 43 41 41 40 40 40 41 41 42 42 42 42 42 42 43 44 43 41 39 40 40 41 41 41 40 39 38 37 37 36 39 41 41 42 43 42 41 39 38 35 32 30 30 30 31 32 33 34 35 34 34 34 34 34 33 31 29 30 32 33 35 37 38 37 38 39 38 37 34 31 31 30 30 31 27 26 26 26 24 20 20 21 20 21 20 20 18
45 44 43 42 40 40 40 41 41 42 42 42 42 42 42 43 44 44 42 40 39 39 40 40 40 40 39 38 36 35 37 41 42 42 43 44 43 42 40 38 36 33 31 31 30 29 30 33 34 35 36 36 36 35 36 35 32 32 33 35 36 37 38 38 38 38 39 37 35 33 32 29 26 28 29 26 26 27 25 23 21 21 21 20 22 22 20 18
47 46 44 43 42 41 40 41 42 43 43 43 43 42 42 43 44 45 43 41 38 37 38 38 38 39 39 38 36 36 38 41 40 40 41 42 42 41 40 38 36 34 33 31 30 28 30 34 36 37 38 37 37 36 36 34 33 33 35 37 38 39 40 40 39 39 39 36 32 30 28 25 23 26 28 26 26 26 24 23 20 20 21 20 21 21 19 18
49 48 47 45 44 43 41 41 42 44 44 44 44 43 43 43 44 45 45 42 40 38 37 36 36 36 37 37 36 37 39 40 40 40 40 40 40 39 39 39 37 35 33 32 30 29 30 34 37 38 38 37 38 38 36 35 35 35 36 38 38 40 41 40 40 40 38 34 30 27 25 23 25 27 28 28 28 27 26 24 20 20 21 19 19 20 21 21
51 50 49 48 47 45 44 42 43 45 45 45 45 44 44 43 43 45 45 44 43 41 38 37 36 35 35 34 35 38 39 40 39 39 39 39 39 39 38 39 38 36 34 32 31 30 31 34 37 38 38 38 38 39 37 37 37 37 38 38 38 39 39 39 39 39 36 30 26 25 22 20 24 28 28 28 29 28 26 23 21 22 22 20 20 21 23 24
53 52 51 50 49 48 47 45 44 45 46 46 46 46 45 44 44 44 45 45 45 44 41 40 38 36 35 33 35 39 39 39 38 38 38 39 39 40 39 39 39 37 35 33 32 31 31 34 36 38 40 39 38 38 37 38 38 38 38 38 38 38 37 37 36 35 31 25 20 21 22 22 25 27 27 27 28 28 25 23 23 24 23 23 22 22 23 23
55 54 53 52 52 51 50 48 46 45 47 48 47 47 46 45 45 44 45 45 45 45 43 42 41 39 37 35 37 39 38 37 38 39 38 37 38 39 40 39 38 37 36 34 33 33 32 34 35 38 41 40 39 39 39 39 39 38 37 36 37 36 35 35 34 32 27 22 19 21 22 24 26 25 25 25 25 25 23 23 24 24 24 24 23 23 23 23
56 56 56 55 54 53 52 50 48 46 47 49 49 48 48 47 46 45 45 45 45 45 44 44 42 41 40 37 38 40 38 38 40 40 37 35 37 39 40 40 39 38 36 35 34 33 33 33 32 35 40 42 43 41 40 40 40 39 37 35 34 33 31 30 30 28 24 22 21 21 21 22 23 24 24 24 24 24 22 23 24 25 24 23 22 22 22 22
59 59 59 58 57 56 54 51 49 47 48 49 50 49 49 49 48 47 46 45 45 45 44 44 43 42 41 38 38 40 40 39 41 40 35 34 37 40 41 41 41 40 38 37 36 35 35 34 32 34 38 42 44 43 43 42 39 38 37 34 31 29 28 26 26 25 23 22 21 20 19 19 21 23 24 25 26 24 22 23 25 25 24 22 22 21 21 21
61 61 62 61 60 57 54 52 50 48 48 49 50 50 49 49 49 49 48 47 46 45 45 44 43 43 41 39 39 40 41 42 43 41 36 36 40 42 43 43 43 42 41 40 39 38 37 35 34 34 36 40 44 45 45 41 36 34 34 32 31 28 26 24 25 24 22 21 20 20 18 19 22 23 24 26 28 25 23 24 26 25 23 22 22 22 20 21
61 61 61 61 60 57 52 51 49 48 48 49 50 49 49 49 49 49 49 48 47 46 45 44 43 43 42 40 40 42 44 45 46 44 41 40 43 45 46 45 44 44 44 43 41 39 38 36 35 34 34 36 39 42 42 37 33 31 31 30 30 29 25 24 24 23 23 21 20 19 19 21 22 22 24 27 28 26 24 25 25 23 22 23 23 22 22 22
60 59 59 59 59 55 51 50 49 47 48 48 49 49 49 49 49 50 50 48 47 46 45 44 43 43 43 42 43 44 45 46 46 46 44 43 45 48 48 47 46 45 45 44 42 40 38 37 35 33 31 31 33 35 37 36 34 32 31 29 30 29 26 24 22 22 23 22 19 18 19 23 22 22 25 28 28 26 24 25 23 22 24 25 23 22 23 24
60 59 58 57 58 55 50 49 48 47 47 48 49 48 48 48 50 50 49 48 47 46 45 43 41 41 41 42 42 44 45 46 46 45 44 45 47 50 50 49 48 48 47 45 43 42 41 39 35 32 30 29 30 31 32 35 35 34 32 30 31 30 27 26 23 21 22 22 20 18 20 25 24 24 27 27 28 26 24 24 22 22 24 24 22 23 23 23
61 60 59 57 57 56 52 49 48 47 47 47 48 48 48 49 50 50 50 48 47 46 44 43 40 37 39 40 40 42 44 44 45 44 44 45 48 50 50 50 50 48 46 46 45 44 44 40 36 32 31 30 29 28 29 31 34 35 35 34 33 30 29 29 25 22 22 22 21 18 19 25 27 29 30 28 28 26 23 23 21 21 21 20 21 23 23 22
60 60 59 58 57 57 54 51 49 48 47 47 48 48 49 50 50 50 49 47 45 45 43 42 39 35 37 39 39 40 41 42 43 43 43 45 47 48 50 50 50 48 47 47 46 45 44 40 37 34 32 31 29 27 28 30 33 35 36 35 32 30 31 30 26 24 23 21 20 16 17 26 32 35 35 31 28 25 23 24 22 20 19 19 21 21 21 21
59 59 58 57 57 57 55 53 50 49 48 47 47 49 49 50 49 48 47 46 44 44 42 42 39 35 37 40 39 39 40 42 42 42 42 44 46 47 48 49 49 48 47 46 46 46 44 39 36 34 32 31 30 30 31 32 33 34 34 32 29 29 31 29 26 26 25 22 20 16 15 27 37 38 37 33 29 27 26 24 22 20 20 21 21 18 16 15
57 56 56 56 56 55 55 55 52 49 49 48 47 48 48 49 48 47 46 45 43 42 42 42 38 33 37 42 41 39 40 42 42 43 43 44 45 46 48 49 49 48 46 46 46 47 45 40 36 36 34 32 32 32 32 32 32 32 32 29 25 27 30 29 27 28 30 26 22 19 17 26 37 38 37 35 30 27 26 25 22 21 21 21 19 15 13 13
52 53 53 53 53 54 55 53 52 51 49 48 47 48 48 47 46 45 44 44 42 40 41 40 35 33 37 41 38 37 40 41 41 43 43 44 44 44 47 48 47 46 45 45 46 47 46 41 39 38 36 35 34 34 32 31 31 31 28 26 25 29 31 30 27 29 32 27 21 20 18 24 36 41 39 35 30 27 27 26 23 21 22 22 18 14 13 15
46 47 48 50 51 51 50 48 49 50 49 48 47 47 46 45 44 42 42 43 39 37 38 37 33 33 36 37 36 36 37 38 40 41 41 42 44 45 47 47 46 46 45 46 48 48 46 43 41 40 39 38 37 35 32 31 31 28 24 25 28 33 33 30 28 28 29 24 19 19 17 23 37 42 40 36 32 30 29 26 24 23 24 22 16 12 15 16
38 41 43 46 46 44 44 44 46 48 47 47 47 46 46 45 44 41 40 40 35 34 37 34 32 34 35 36 37 36 33 35 37 38 39 40 42 44 46 47 46 45 45 47 48 46 45 44 42 41 41 41 38 34 32 32 30 26 23 27 33 36 33 30 29 28 28 26 23 21 19 28 39 41 39 38 35 32 30 27 24 24 23 20 15 14 16 14
33 35 38 41 41 41 41 38 40 46 46 46 46 45 44 43 42 41 39 36 31 31 35 33 33 36 36 38 38 35 34 35 36 36 37 38 40 42 44 45 45 45 45 46 46 44 43 42 41 42 42 40 37 33 32 33 29 25 25 30 36 37 34 31 31 29 29 30 29 25 24 31 41 42 41 40 38 35 32 27 24 23 22 19 15 15 16 14
29 32 35 37 37 38 38 34 36 44 45 44 44 44 43 42 41 39 37 33 29 30 32 32 32 33 34 36 35 34 35 36 36 38 38 38 39 42 42 43 43 45 46 46 46 44 42 41 41 43 42 39 37 34 34 33 28 27 29 32 38 39 35 32 31 30 32 34 33 30 27 34 40 42 43 40 36 34 32 29 24 22 21 18 16 17 18 18
27 30 35 36 36 36 36 34 36 40 41 42 43 42 42 41 40 38 35 32 29 28 29 29 30 32 33 33 31 31 34 36 38 40 41 41 42 44 45 46 46 46 48 48 47 44 43 43 44 44 42 40 39 36 36 34 30 30 34 35 39 40 36 33 32 33 35 34 31 29 27 32 38 41 41 39 36 32 28 25 22 21 20 20 20 19 17 16
25 31 36 37 36 33 31 31 33 34 37 40 41 40 40 40 39 35 32 30 27 25 27 27 27 29 31 31 29 28 32 36 39 41 41 42 44 46 48 49 49 49 50 50 48 45 44 45 45 44 43 42 41 40 39 37 34 34 37 40 42 42 40 37 36 37 38 33 29 28 26 28 33 38 40 39 37 33 27 23 23 23 24 24 22 18 13 13
26 33 37 37 33 29 29 30 29 30 34 37 38 40 40 37 34 32 30 29 28 27 28 28 28 28 29 30 30 30 31 34 38 40 41 41 42 45 46 47 47 47 49 49 48 47 45 45 46 46 45 44 43 43 42 41 39 38 40 42 44 45 45 42 40 40 39 34 28 28 29 28 30 36 40 38 33 30 29 28 27 27 27 26 23 16 10 11
31 36 38 38 33 29 30 29 27 28 30 32 36 39 37 33 31 31 30 30 32 31 31 31 31 31 31 29 29 31 32 34 37 39 41 41 42 44 46 47 46 45 46 46 46 46 46 46 47 47 47 46 44 44 42 41 39 38 39 42 44 46 47 44 42 42 40 36 30 31 35 36 34 36 40 39 34 30 30 30 30 30 30 27 24 16 10 11
36 37 38 38 33 29 27 26 27 29 28 30 35 35 32 31 33 33 32 32 34 33 32 33 33 32 32 30 30 31 32 33 36 39 40 40 41 43 45 46 46 46 45 45 44 44 45 45 44 44 45 45 44 43 42 40 39 37 39 43 45 46 47 45 42 41 39 36 34 37 42 43 42 42 43 43 40 36 33 33 33 33 30 27 24 17 11 13
36 35 37 36 30 26 24 24 26 28 29 31 32 31 32 34 35 35 34 35 35 34 33 33 32 32 32 31 32 32 33 34 35 38 38 38 39 40 42 43 44 44 44 45 44 44 44 43 41 41 43 44 43 42 42 43 40 38 40 42 43 46 47 46 43 42 40 38 38 41 44 44 44 45 46 46 43 40 38 37 34 32 30 28 25 19 13 14
33 33 34 29 24 24 23 22 24 28 29 28 31 35 37 37 35 34 35 34 34 34 34 33 31 30 30 31 32 33 35 36 36 37 36 37 38 40 40 41 42 42 42 42 42 42 41 39 38 40 40 42 42 40 39 41 40 40 41 41 43 47 49 48 45 44 44 43 43 44 45 44 43 44 45 44 40 39 39 40 37 34 32 30 26 20 15 15
31 30 27 22 20 20 19 20 23 27 29 33 39 41 41 40 36 34 34 33 31 32 31 29 28 28 29 29 31 33 35 37 37 37 36 35 37 39 39 40 41 40 40 39 39 39 38 36 36 38 37 38 40 39 38 40 41 41 40 40 43 48 50 51 49 47 46 46 46 46 45 44 43 43 41 36 33 33 35 38 40 36 33 30 27 23 18 17
29 25 22 21 20 18 17 20 23 28 35 43 46 45 44 42 37 34 34 32 31 30 27 26 27 29 30 29 30 33 35 36 37 36 36 34 35 36 37 39 39 39 39 39 38 38 37 35 34 35 35 33 36 40 41 43 43 41 39 39 42 46 50 52 52 49 47 46 46 46 46 45 44 42 36 30 29 31 31 33 36 36 34 32 30 28 24 22
24 21 19 19 18 17 18 21 27 35 43 47 47 46 46 41 33 32 33 32 31 29 26 26 27 29 31 31 32 34 34 35 36 36 35 33 33 34 35 37 37 37 38 38 38 37 36 36 35 35 35 35 37 41 43 43 43 42 42 41 42 46 49 51 51 51 48 44 43 44 46 45 43 41 36 32 32 33 32 30 30 32 33 33 31 29 27 25
16 15 16 15 15 18 21 26 34 41 44 47 48 46 43 38 34 32 32 32 32 30 27 25 25 27 30 30 32 34 35 36 36 34 33 31 31 33 34 36 36 36 37 38 39 39 38 37 37 35 37 39 39 40 39 38 39 40 41 41 42 45 49 49 49 50 49 46 42 42 43 42 41 41 39 36 34 34 33 31 28 30 31 32 32 30 29 29
11 10 12 12 13 19 26 31 37 43 47 50 48 41 37 39 37 31 32 34 34 33 29 24 23 26 29 30 30 33 36 37 36 34 31 29 28 29 32 34 35 35 38 39 39 39 39 40 40 37 38 40 39 37 35 33 35 36 37 38 41 45 48 48 47 47 49 49 44 41 41 41 41 43 41 37 35 34 34 32 31 32 33 33 33 32 32 32
8 8 10 12 15 23 31 36 41 48 51 49 44 36 34 40 37 29 31 38 37 34 29 25 26 27 29 29 27 30 35 36 35 31 27 27 26 26 27 29 32 36 38 39 39 39 40 42 43 40 39 39 38 37 35 33 33 35 35 35 40 44 47 48 46 43 43 47 47 44 44 45 44 43 41 38 35 35 35 34 34 34 35 35 34 33 33 33
10 9 11 14 20 27 35 43 49 52 51 45 39 35 36 40 36 27 31 38 37 33 29 28 30 28 29 29 25 29 34 34 31 26 23 24 24 23 24 25 29 36 38 38 39 39 40 42 43 42 41 41 41 40 38 36 36 36 34 34 38 45 49 48 45 41 37 38 44 46 47 48 48 44 42 39 38 38 37 37 38 38 38 37 35 34 35 34
11 13 13 15 24 32 40 49 53 50 45 38 35 36 37 38 33 28 32 37 35 31 28 31 32 30 32 31 26 30 34 32 31 29 25 25 22 19 21 23 27 35 37 36 38 39 40 41 42 42 43 43 43 43 40 38 38 38 36 36 40 46 51 49 44 41 37 34 37 42 44 47 48 47 44 41 41 41 41 41 40 41 41 39 37 37 37 36
14 15 14 18 29 37 43 51 50 42 36 33 33 35 36 34 32 31 35 37 36 32 31 34 34 31 33 32 29 31 35 34 33 31 28 27 25 20 20 20 25 33 38 39 40 40 38 38 39 41 41 41 41 39 37 35 36 38 39 42 44 47 52 50 43 40 40 36 34 37 40 41 43 44 42 39 37 37 38 41 41 40 41 40 38 38 37 37
15 15 17 23 33 40 46 49 43 33 29 30 31 33 32 32 32 33 36 38 37 36 35 35 34 31 31 32 30 31 35 35 33 31 30 29 27 25 23 22 25 32 38 40 42 41 39 37 39 41 40 39 39 36 34 34 36 40 44 46 47 48 52 52 46 40 39 39 37 36 37 38 39 39 37 35 33 31 32 35 37 38 39 38 37 36 35 36
16 17 23 29 35 40 44 43 35 29 28 30 30 31 30 30 32 34 37 38 39 38 37 37 36 32 31 32 31 32 35 35 32 32 30 29 29 28 26 27 27 31 38 42 42 42 40 37 38 40 39 38 38 35 33 35 37 41 46 49 49 51 54 55 51 43 40 41 41 38 36 36 37 36 34 32 32 31 30 31 32 34 35 35 34 33 33 33
18 20 26 34 40 42 40 35 31 30 30 30 30 30 29 29 31 35 36 36 39 41 38 38 38 33 32 35 34 32 35 34 33 32 28 28 33 32 28 30 30 31 37 42 43 42 40 37 36 37 37 37 38 36 33 34 38 43 49 50 50 51 54 55 52 47 45 45 43 40 37 35 37 38 36 34 34 33 32 32 31 30 30 31 32 32 32 33
20 24 28 36 41 39 33 29 30 30 30 30 30 29 28 27 28 31 31 30 36 40 38 39 39 33 33 38 35 33 35 35 35 34 29 30 36 34 31 32 33 33 37 40 42 42 40 37 35 34 33 35 39 38 35 35 37 43 50 53 51 51 52 54 52 51 51 49 45 43 41 38 38 40 38 36 35 34 34 33 30 28 28 29 30 30 30 30
23 27 29 36 38 32 27 26 27 28 28 28 28 27 26 24 23 26 26 25 31 37 37 38 38 35 36 37 34 33 36 36 37 35 30 31 37 37 34 34 35 37 38 38 39 41 40 38 36 34 34 35 38 40 39 36 36 40 48 54 54 52 51 51 50 50 52 51 48 47 45 41 39 38 39 38 35 35 36 34 30 28 28 29 30 29 29 29
25 27 31 38 36 30 26 24 23 25 26 25 22 21 20 19 20 24 25 22 26 32 35 37 38 37 37 37 33 33 36 37 37 34 30 31 37 39 37 36 37 38 39 39 38 39 40 40 38 38 38 38 39 40 39 37 35 37 44 52 55 53 50 49 49 49 49 50 50 47 44 42 39 37 38 38 35 34 35 34 31 28 27 27 27 27 28 29
Wind_Direction
272 271 271 270 269 268 266 265 264 262 260 258 256 255 255 254 254 253 253 251 250 250 249 248 248 247 246 246 246 245 245 245 245 243 241 241 240 242 245 245 245 245 242 238 234 232 231 231 231 230 229 230 230 230 230 229 230 231 233 233 233 232 226 223 223 224 225 224 219 217 220 223 227 234 236 238 241 242 244 249 252 255 258 260 259 259 262 258
272 271 270 270 269 269 267 265 264 262 261 259 257 255 254 253 253 252 252 252 251 249 249 248 247 247 245 245 244 244 244 244 244 241 240 240 238 239 243 243 244 244 243 239 235 231 230 229 229 228 227 227 227 228 228 228 229 229 230 229 227 225 220 219 220 221 222 220 213 206 213 222 226 231 235 237 240 243 246 250 251 253 258 258 254 252 254 252
272 272 271 270 269 268 267 266 264 262 261 259 257 255 254 253 252 251 251 250 250 249 248 247 246 246 245 244 243 242 242 242 241 238 239 240 237 237 240 241 242 243 242 240 236 232 229 228 228 228 227 226 226 226 226 227 227 227 227 223 219 219 219 218 217 218 220 220 212 203 210 220 227 231 231 232 236 240 243 247 250 249 251 250 248 248 251 249
273 272 272 271 269 268 267 266 265 263 261 259 257 255 253 252 252 251 250 249 249 248 247 246 245 245 244 244 242 240 240 240 238 235 239 240 236 235 238 239 241 241 241 239 237 233 230 227 226 226 226 227 226 225 225 226 226 225 222 211 210 217 219 217 216 218 219 221 215 207 210 219 228 231 230 230 230 236 241 244 247 245 244 244 244 246 247 245
274 273 272 272 271 269 267 265 264 263 261 259 257 255 253 251 251 250 249 248 247 246 246 245 244 244 243 243 241 239 238 238 235 233 238 239 234 234 236 237 239 240 240 239 236 233 230 226 224 223 224 224 225 226 225 225 224 224 217 202 206 214 217 216 215 219 220 221 218 210 210 220 228 230 233 234 230 235 240 242 245 245 243 242 244 246 247 248
274 274 273 273 272 270 268 266 264 262 260 258 257 255 252 250 249 249 249 247 246 244 244 243 243 242 242 242 240 238 236 236 233 231 236 237 234 233 234 235 237 238 238 237 235 233 229 226 223 222 222 222 222 224 225 224 222 221 213 208 211 213 214 215 215 217 219 220 217 211 212 222 227 230 236 238 232 236 240 240 242 243 242 241 243 247 249 251
273 273 273 273 273 272 270 267 264 262 259 257 256 254 251 248 248 248 248 247 245 243 242 241 241 241 241 241 239 237 235 235 233 230 234 236 233 231 232 232 234 236 236 235 234 231 228 225 222 221 221 222 221 221 223 223 222 218 211 211 213 214 215 216 215 216 218 220 217 211 215 226 229 230 236 237 232 235 241 242 242 242 243 243 244 247 250 253
272 271 271 271 272 271 270 268 265 262 259 257 255 253 250 247 246 246 246 245 244 242 241 240 239 239 239 239 238 236 234 233 231 228 230 233 231 229 229 230 231 233 233 234 232 229 227 223 220 220 219 220 220 220 220 219 220 217 212 213 213 214 216 218 218 217 218 219 219 213 215 228 232 231 236 237 234 236 238 239 242 245 244 244 246 247 250 253
270 270 270 269 269 269 269 268 266 262 259 256 254 252 250 246 244 244 244 244 243 241 240 239 238 238 238 238 237 234 230 230 229 225 226 229 229 227 226 227 228 229 230 231 231 230 227 221 218 219 218 218 219 219 218 216 215 212 209 211 212 213 216 221 222 221 219 218 220 217 214 228 234 232 235 237 236 238 237 234 235 242 243 244 246 246 248 251
269 268 269 268 268 268 268 267 265 262 259 256 253 251 249 246 243 241 242 242 241 240 239 238 237 236 236 236 236 231 228 230 230 226 225 227 227 226 224 225 226 227 228 229 230 230 225 220 217 217 217 217 217 218 218 215 212 209 207 206 207 209 213 220 223 223 223 218 220 222 218 228 235 234 236 234 235 239 242 239 233 236 239 240 243 244 247 251
268 268 268 268 267 267 268 266 264 261 258 255 252 250 247 245 242 240 240 240 239 238 237 236 235 235 234 235 234 229 228 232 231 227 227 228 229 228 225 223 225 225 226 227 228 227 222 218 216 215 215 215 216 218 218 216 213 210 210 210 207 206 209 216 221 224 225 220 220 223 222 227 230 231 233 230 233 238 243 244 236 235 238 237 239 242 246 249
267 267 267 267 267 268 269 267 264 260 256 253 251 248 246 244 241 239 238 238 238 236 236 235 234 233 233 233 233 229 228 231 230 227 225 225 227 230 228 224 223 224 225 226 226 225 222 219 217 215 214 215 216 217 217 216 215 213 214 215 212 209 210 214 219 223 225 222 218 218 217 221 223 226 227 226 230 233 236 239 237 235 238 239 239 239 242 244
266 266 267 267 267 268 269 269 265 260 255 252 249 247 245 243 241 238 236 237 237 236 235 234 234 233 232 231 231 230 230 230 231 228 223 221 222 225 227 226 224 223 223 224 224 224 221 220 218 215 214 215 216 217 217 216 215 215 215 215 214 214 214 215 219 223 226 224 219 217 216 219 225 227 225 224 226 229 232 235 236 237 238 239 238 237 241 245
267 266 266 266 267 268 269 269 266 260 254 251 248 246 244 241 240 237 236 236 236 236 234 234 234 233 232 230 229 231 231 231 233 230 223 219 220 221 223 224 224 223 222 223 224 223 222 221 217 213 213 214 216 217 218 218 216 217 217 215 216 217 216 217 221 225 226 225 220 219 217 214 221 228 228 226 226 226 227 230 234 237 237 238 239 240 243 246
267 266 265 266 267 268 269 269 266 260 253 250 246 244 242 240 238 236 235 235 235 235 235 234 234 233 233 229 228 232 232 231 233 231 223 217 218 221 222 222 222 222 222 222 223 223 223 222 218 214 213 212 215 216 217 218 217 218 220 219 219 219 218 218 221 225 224 222 220 218 215 213 217 224 229 229 228 227 224 225 231 234 235 238 241 243 243 244
267 266 265 265 266 267 268 268 265 259 252 248 245 242 241 239 238 236 234 233 233 234 234 234 233 233 233 229 228 232 232 230 230 230 224 216 216 220 221 220 219 219 220 221 221 222 223 223 221 217 214 212 214 215 216 218 217 217 219 220 221 222 222 221 223 225 222 220 220 217 215 214 214 218 225 227 228 226 221 223 228 230 233 238 241 243 244 245
267 267 266 266 266 266 267 266 263 257 250 246 244 241 240 239 237 236 234 233 233 233 234 234 233 233 232 230 229 231 231 230 229 227 221 214 215 219 220 220 219 217 216 218 218 218 220 221 219 217 215 215 215 214 216 216 216 217 218 219 221 222 223 225 227 227 222 218 218 217 215 208 207 214 220 225 227 223 218 220 225 228 231 236 238 240 244 246
266 266 266 266 265 265 265 263 259 255 249 244 242 240 239 238 237 235 234 232 232 233 234 234 234 233 233 230 228 227 228 229 228 225 216 210 212 217 219 219 218 217 215 216 217 217 218 218 216 215 216 216 217 216 217 216 215 219 221 221 221 220 220 223 225 226 223 219 217 217 211 199 204 214 219 223 225 220 214 217 220 223 228 232 235 239 244 247
265 264 264 264 263 262 261 259 255 251 247 243 241 239 238 237 236 235 234 232 232 233 234 234 233 233 232 230 227 226 226 227 227 223 215 207 209 214 217 218 217 217 217 216 217 217 218 218 216 214 214 216 218 220 218 215 215 219 221 222 222 220 217 217 218 217 216 215 214 214 203 195 205 217 222 225 225 219 215 217 216 217 226 233 237 242 245 244
264 263 261 261 261 259 256 254 251 248 245 242 239 239 237 236 235 234 233 232 232 233 233 234 234 234 232 229 227 225 226 227 228 225 216 207 207 211 214 216 216 215 217 216 216 217 217 218 216 215 216 217 219 221 219 215 214 216 217 217 219 216 211 209 208 208 211 209 205 205 195 192 204 217 223 229 230 224 220 220 217 217 228 235 239 240 240 240
262 260 259 258 258 257 253 250 248 245 242 240 238 237 237 236 234 233 232 232 232 232 233 234 234 235 235 232 229 226 225 226 227 226 220 211 208 210 212 213 215 215 215 216 215 216 216 215 213 214 215 216 218 219 217 216 215 216 215 215 215 212 206 202 196 198 206 202 193 195 189 188 201 216 223 229 231 229 226 225 221 221 227 234 240 240 237 238
259 257 256 255 254 254 250 247 244 242 239 237 236 236 236 234 232 231 231 231 232 232 232 234 234 234 235 234 231 229 227 226 226 224 220 216 212 212 211 212 213 214 214 215 215 215 214 212 210 212 213 214 215 213 211 213 214 214 214 216 215 210 208 204 193 189 195 190 181 182 185 188 199 212 220 226 229 230 231 230 230 228 229 236 242 242 239 237
256 254 252 251 250 250 248 245 241 239 237 235 234 235 234 232 231 230 231 231 232 232 232 233 232 230 231 232 229 228 228 227 227 224 220 219 217 214 213 212 212 213 213 214 215 216 215 211 210 211 211 211 211 208 207 207 209 211 211 214 214 211 211 206 195 188 187 181 173 169 178 189 197 207 215 222 225 226 228 230 233 232 230 236 242 246 246 246
253 250 248 247 246 246 245 243 239 236 235 233 232 233 232 231 231 230 231 232 232 232 232 232 231 226 227 229 225 223 224 224 224 223 221 219 218 216 215 214 213 212 213 214 214 216 215 213 213 212 211 211 208 206 206 205 206 208 207 207 209 212 211 205 194 187 181 172 166 165 177 192 199 206 215 220 220 221 226 231 233 232 232 239 247 254 258 261
249 246 243 242 241 241 241 241 238 234 233 231 230 231 230 230 229 229 231 231 231 231 231 231 230 223 223 227 224 219 219 221 221 220 219 217 216 217 217 215 213 212 213 213 214 214 214 212 212 212 211 210 209 208 207 207 207 208 204 197 199 206 206 200 191 187 186 178 170 173 186 197 202 210 217 220 221 222 226 228 229 233 241 246 249 253 266 279
246 243 239 237 235 235 236 237 236 232 231 229 228 228 229 229 228 229 231 231 230 230 230 230 227 221 222 227 225 219 218 218 219 220 219 215 213 215 218 217 214 212 212 213 214 213 213 211 209 210 211 210 211 209 208 208 208 210 202 186 189 198 195 190 186 187 190 184 176 180 192 201 203 209 216 220 224 224 225 226 228 235 242 247 248 254 281 291
243 239 235 232 230 230 231 232 232 229 228 227 225 226 226 226 227 228 230 230 228 227 229 228 222 221 223 226 225 223 221 219 217 218 218 217 213 211 214 215 214 212 211 213 214 213 212 211 208 208 209 210 209 207 207 208 208 208 197 180 185 188 185 184 186 187 184 178 179 185 194 206 206 208 214 219 224 225 224 227 231 237 241 247 253 270 293 290
240 234 230 227 224 223 224 227 228 226 224 224 223 222 223 224 224 224 226 228 226 223 226 223 217 218 219 220 221 220 220 220 220 217 216 217 215 213 213 212 212 212 213 214 214 212 212 212 209 208 209 208 207 205 207 209 207 202 190 181 181 180 181 187 189 186 177 172 181 189 195 203 206 209 214 219 223 224 226 229 233 239 245 252 264 285 291 276
234 225 221 219 216 214 215 219 224 222 220 220 219 219 221 221 221 221 221 222 219 218 221 218 215 217 217 218 219 215 213 214 216 215 213 213 214 214 215 213 211 210 212 214 214 213 212 212 211 211 210 208 208 206 207 209 205 196 187 182 180 179 185 194 194 187 181 180 183 189 197 201 204 211 215 220 224 226 229 232 235 241 248 255 266 282 279 260
227 215 209 205 204 206 205 207 216 218 216 216 215 215 217 217 218 218 217 215 210 211 215 214 213 214 216 220 219 214 211 210 211 211 207 207 210 211 212 213 212 211 210 211 212 211 210 210 210 210 209 209 210 208 208 207 200 192 188 183 181 183 189 196 194 186 188 193 186 183 194 200 205 214 219 225 231 233 235 235 236 240 248 259 268 275 276 269
217 204 195 189 191 196 199 203 212 214 212 211 210 211 212 213 213 212 211 209 204 204 206 206 207 210 214 218 219 215 211 208 209 210 205 202 204 206 207 208 208 209 210 210 209 208 207 208 209 208 208 209 209 207 208 206 197 190 188 184 183 186 189 192 192 189 194 200 188 180 191 201 209 219 224 227 233 236 239 240 241 245 252 262 266 269 278 277
202 190 183 179 182 187 194 204 210 210 208 207 206 206 207 209 208 206 204 199 192 193 197 197 201 207 212 214 212 213 212 209 209 210 207 203 202 204 206 207 207 207 209 209 208 207 207 208 207 207 208 209 208 206 206 205 197 191 188 184 185 188 190 190 192 196 200 200 190 182 191 205 216 224 227 229 233 235 236 235 237 241 247 253 256 260 273 274
182 177 172 169 170 177 190 200 203 203 204 203 201 201 202 202 200 197 194 187 181 186 193 192 192 199 207 210 206 204 206 208 210 211 208 204 203 204 206 208 208 208 209 210 209 207 207 207 207 206 206 207 208 206 205 204 200 195 191 188 186 189 193 192 195 201 203 201 192 184 192 208 218 223 226 229 235 239 238 236 236 237 240 244 246 249 262 269
165 163 161 161 163 175 190 196 193 192 195 196 197 197 195 190 187 186 185 182 183 187 190 191 190 194 201 204 203 202 201 202 207 210 209 205 202 203 205 207 207 207 209 210 210 209 208 208 209 207 205 205 207 207 206 206 204 199 195 192 189 191 195 195 197 202 204 201 192 186 195 207 212 217 223 229 236 242 240 237 238 240 241 242 243 243 249 258
151 152 157 161 165 176 190 193 189 186 185 187 191 190 182 176 178 180 180 183 186 186 189 194 192 192 195 195 195 198 199 200 204 208 209 206 204 203 204 207 207 205 207 209 209 211 211 211 211 211 209 207 206 206 206 207 207 202 197 196 194 193 195 197 199 203 204 199 192 192 199 207 211 215 220 228 236 240 239 236 236 240 243 243 244 241 238 246
142 147 155 160 165 176 188 192 190 185 183 184 181 171 165 170 177 178 178 183 185 184 188 193 190 186 189 191 191 191 193 198 204 207 208 205 204 204 204 206 207 206 207 208 208 209 211 211 211 212 213 210 207 205 206 207 206 202 200 202 201 195 195 199 200 202 203 198 197 201 206 212 218 219 219 224 232 236 237 237 236 238 240 243 245 240 232 241
139 143 149 153 166 180 187 189 186 183 182 175 161 156 160 168 172 173 177 182 183 184 188 191 189 185 185 188 190 189 190 196 202 206 207 204 202 202 202 204 206 205 206 208 207 208 209 209 209 211 213 213 209 205 205 207 206 203 203 204 202 197 197 200 201 203 203 202 204 210 214 219 225 226 223 223 228 232 235 236 235 235 238 241 243 238 230 238
139 142 146 153 169 184 186 182 180 178 168 155 151 156 161 161 160 165 175 179 181 185 187 188 188 185 182 184 188 189 192 196 200 204 205 202 201 200 200 202 204 203 204 207 207 207 207 206 207 210 211 213 212 206 203 206 206 205 203 203 201 199 200 202 203 205 205 206 210 214 219 224 229 232 230 225 227 232 234 234 233 233 237 241 245 246 243 244
141 145 153 160 171 185 186 177 171 163 152 149 154 158 157 154 153 162 173 176 177 180 180 181 181 178 177 178 183 190 194 197 199 202 203 200 198 198 199 201 202 200 200 203 205 205 204 201 203 208 206 207 211 210 207 206 206 204 201 200 201 202 203 205 207 208 208 209 213 217 221 224 227 230 230 226 227 231 232 232 231 232 236 240 246 253 255 256
139 146 157 165 174 183 179 167 156 150 147 151 156 153 151 153 155 162 170 171 171 173 175 178 178 175 175 176 181 188 192 196 199 201 201 198 195 196 197 200 201 198 198 200 201 202 200 197 198 202 202 201 208 212 212 210 208 207 204 200 200 202 204 206 209 211 210 210 213 217 221 224 225 227 228 225 224 226 229 230 228 229 233 237 243 250 254 258
139 148 160 170 180 176 165 154 147 145 147 151 150 146 149 158 158 158 165 167 167 168 172 178 179 177 175 174 180 186 188 194 199 200 198 193 193 195 195 198 199 196 196 198 199 200 197 194 194 197 201 204 209 213 214 213 213 212 210 205 202 203 204 205 208 212 212 211 212 218 222 224 226 229 230 229 226 226 229 231 230 229 231 236 241 245 250 253
146 160 167 174 179 166 154 148 144 145 148 148 144 142 151 161 158 155 164 168 166 166 170 174 178 179 173 170 178 184 186 191 195 196 193 188 189 194 194 197 197 195 197 200 199 199 197 192 190 193 201 205 206 208 208 210 213 216 214 209 206 204 205 206 208 211 212 212 212 216 221 224 226 230 233 231 227 226 229 232 233 234 235 237 240 242 246 249
127 148 157 160 161 156 149 145 144 145 145 143 142 143 151 161 161 158 167 170 168 168 171 170 172 175 167 165 177 183 184 190 190 188 188 183 182 184 187 194 197 195 198 199 197 197 196 193 190 192 199 204 204 204 201 199 207 215 216 212 209 207 207 209 210 209 211 214 215 216 219 223 226 230 232 230 227 227 229 232 234 236 238 239 241 244 246 247
106 112 127 140 149 148 144 142 142 142 139 139 142 141 146 161 166 165 170 173 171 170 172 171 170 169 162 163 179 185 182 184 181 177 180 178 177 175 174 182 195 198 198 198 197 198 198 197 194 192 197 202 204 205 201 197 201 209 211 209 210 208 206 207 208 206 209 216 219 219 221 224 227 229 231 229 228 228 231 234 237 239 240 240 242 246 248 249
108 104 107 131 143 142 141 144 142 137 133 136 139 136 142 158 167 169 171 174 175 173 173 172 169 165 161 164 182 186 178 177 174 170 169 166 165 170 170 173 187 197 198 196 196 198 199 199 198 197 198 201 205 208 208 203 203 208 208 204 205 205 202 203 205 206 208 215 220 222 223 225 228 230 232 233 233 234 235 236 239 241 240 241 244 247 248 249
110 110 118 136 141 140 145 148 141 129 126 131 133 135 141 150 158 167 172 176 178 174 172 173 169 165 165 169 181 183 174 173 172 165 160 157 158 167 172 170 179 191 193 192 191 193 197 198 198 200 201 200 205 210 209 204 203 206 205 199 199 201 201 201 203 205 208 213 219 223 224 225 228 231 232 234 235 235 236 236 237 239 239 239 243 245 245 245
114 124 136 140 140 144 149 146 133 120 121 129 133 138 142 143 149 162 171 177 180 174 173 176 169 163 168 172 180 182 173 171 170 161 160 165 163 165 170 168 175 184 186 188 191 192 193 194 194 196 197 197 202 205 201 197 198 201 200 195 194 197 198 200 201 203 208 213 217 222 225 226 228 230 231 231 232 231 232 233 235 236 237 238 240 242 242 241
117 129 137 140 144 149 148 140 127 118 122 130 137 141 142 145 153 162 168 174 179 175 175 177 169 165 173 177 180 183 175 170 169 164 167 173 165 160 166 168 170 177 180 186 194 194 193 193 189 190 193 195 199 201 197 195 196 197 196 194 193 195 198 200 202 203 208 213 215 220 226 226 226 228 228 229 231 231 230 231 233 233 234 236 239 240 240 239
116 127 137 144 147 145 138 127 117 115 120 129 139 143 146 152 162 169 170 172 178 178 176 177 172 170 178 182 183 183 175 170 168 168 173 174 163 160 168 169 165 169 175 185 195 196 196 197 191 187 192 196 198 200 200 199 198 197 196 195 195 197 199 201 204 205 209 212 213 217 224 225 223 224 227 228 230 231 231 232 233 233 233 236 239 239 237 237
125 134 142 147 146 141 133 122 113 113 120 131 142 150 157 162 167 173 172 171 177 180 179 178 176 175 181 184 183 181 177 172 169 171 177 175 165 163 172 172 166 166 171 182 193 196 196 199 196 191 194 199 199 201 203 204 202 200 198 198 198 199 200 202 204 207 210 212 213 215 219 221 221 222 225 228 231 232 233 234 235 236 236 235 237 237 236 235
135 142 148 149 146 140 136 127 115 112 120 132 145 158 165 166 170 175 175 172 177 181 183 182 180 179 182 184 183 180 179 176 173 174 178 176 169 168 175 177 171 169 173 180 191 196 196 199 200 198 200 203 202 202 203 205 208 206 202 201 201 201 202 203 206 210 213 215 216 216 218 220 223 224 227 231 234 234 236 237 238 240 240 236 235 236 236 234
140 147 150 149 146 139 133 122 112 113 120 127 139 154 162 164 172 180 182 178 175 179 184 186 184 182 183 185 183 180 181 182 181 180 180 178 175 173 176 180 177 175 178 182 187 193 197 199 200 200 202 205 205 204 203 205 210 210 206 204 203 204 205 207 209 212 215 216 217 218 218 220 223 226 229 233 236 237 238 239 240 242 241 235 233 235 237 236
Height
5730 5730 5730 5730 5730 5730 5730 5730 5731 5731 5732 5733 5734 5734 5735 5736 5737 5738 5739 5741 5742 5744 5745 5747 5748 5750 5752 5754 5756 5758 5760 5763 5765 5769 5771 5769 5771 5774 5775 5776 5777 5778 5780 5782 5784 5787 5790 5792 5794 5797 5800 5802 5804 5806 5808 5810 5811 5813 5815 5818 5822 5825 5826 5827 5827 5828 5829 5830 5832 5834 5835 5836 5838 5839 5840 5842 5843 5845 5846 5847 5847 5848 5849 5850 5851 5852 5853 5854
5724 5724 5724 5724 5724 5724 5724 5725 5725 5725 5726 5727 5728 5729 5730 5731 5732 5733 5734 5735 5737 5738 5740 5742 5743 5746 5748 5749 5752 5754 5756 5758 5761 5766 5766 5764 5768 5771 5771 5773 5774 5775 5777 5779 5781 5783 5786 5788 5791 5794 5796 5799 5801 5803 5805 5806 5808 5811 5813 5817 5820 5822 5822 5823 5824 5825 5826 5827 5828 5831 5832 5833 5836 5837 5838 5840 5841 5842 5844 5845 5846 5847 5847 5848 5849 5850 5851 5852
5719 5718 5718 5718 5718 5718 5718 5719 5719 5720 5720 5721 5722 5723 5724 5725 5726 5727 5728 5730 5731 5733 5735 5737 5738 5741 5743 5745 5747 5749 5752 5753 5757 5762 5759 5760 5766 5767 5768 5769 5771 5773 5774 5776 5777 5780 5782 5785 5789 5791 5793 5796 5798 5800 5802 5803 5806 5808 5811 5815 5817 5817 5819 5819 5820 5822 5823 5824 5825 5828 5830 5831 5833 5835 5836 5837 5839 5840 5841 5842 5843 5844 5845 5846 5847 5848 5850 5851
5713 5712 5712 5712 5712 5712 5712 5712 5713 5714 5714 5715 5716 5717 5718 5719 5721 5722 5723 5724 5726 5728 5729 5731 5733 5736 5737 5740 5742 5745 5747 5749 5754 5757 5754 5756 5762 5763 5764 5766 5768 5770 5771 5773 5774 5776 5779 5782 5786 5788 5791 5793 5795 5797 5799 5801 5803 5806 5810 5812 5813 5814 5815 5816 5817 5818 5820 5822 5823 5825 5828 5828 5830 5833 5833 5834 5837 5838 5839 5840 5840 5842 5843 5844 5845 5846 5848 5849
5707 5707 5706 5706 5706 5706 5706 5706 5707 5708 5708 5709 5710 5711 5712 5713 5715 5716 5718 5719 5721 5722 5724 5726 5728 5730 5732 5734 5737 5740 5742 5744 5749 5751 5749 5753 5758 5760 5761 5763 5765 5766 5768 5770 5771 5773 5776 5779 5782 5785 5788 5790 5792 5795 5797 5799 5801 5804 5807 5807 5809 5811 5811 5813 5814 5815 5817 5819 5821 5823 5825 5825 5828 5831 5830 5832 5837 5836 5836 5837 5838 5840 5841 5843 5844 5845 5846 5848
5702 5701 5701 5700 5700 5700 5700 5700 5701 5702 5702 5703 5704 5705 5706 5708 5709 5711 5712 5714 5716 5717 5719 5721 5723 5725 5727 5729 5732 5735 5737 5740 5744 5746 5746 5749 5754 5756 5757 5760 5761 5763 5765 5767 5768 5770 5773 5776 5779 5782 5785 5787 5790 5792 5794 5796 5798 5802 5803 5803 5806 5807 5807 5810 5812 5813 5814 5816 5819 5820 5822 5823 5826 5829 5828 5831 5834 5833 5834 5835 5836 5838 5839 5841 5842 5843 5844 5846
5696 5696 5695 5695 5694 5694 5694 5694 5695 5695 5696 5697 5698 5699 5701 5702 5703 5705 5707 5709 5710 5712 5714 5716 5718 5721 5722 5725 5728 5730 5733 5736 5740 5743 5743 5745 5750 5752 5754 5756 5758 5760 5762 5764 5765 5767 5769 5772 5776 5779 5782 5784 5787 5789 5791 5794 5796 5799 5800 5801 5803 5803 5805 5807 5808 5810 5811 5814 5816 5817 5819 5821 5825 5827 5826 5828 5831 5832 5832 5833 5834 5836 5837 5838 5840 5841 5843 5845
5690 5690 5689 5689 5689 5688 5688 5688 5689 5689 5690 5691 5693 5694 5695 5696 5698 5700 5702 5703 5705 5707 5709 5712 5714 5716 5718 5720 5723 5726 5730 5732 5735 5738 5739 5740 5744 5748 5750 5752 5754 5757 5759 5761 5762 5764 5766 5769 5773 5776 5779 5782 5784 5786 5788 5791 5793 5796 5797 5798 5800 5801 5802 5803 5805 5807 5809 5811 5813 5815 5818 5820 5823 5824 5824 5826 5828 5830 5831 5832 5833 5834 5835 5836 5838 5840 5842 5843
5683 5683 5683 5683 5683 5682 5682 5682 5683 5683 5684 5685 5686 5688 5689 5691 5692 5694 5696 5698 5700 5702 5704 5707 5709 5711 5713 5716 5719 5722 5726 5726 5728 5731 5733 5735 5738 5743 5746 5748 5751 5753 5756 5757 5759 5760 5763 5767 5770 5773 5776 5779 5780 5782 5784 5787 5790 5793 5794 5796 5798 5799 5800 5801 5803 5805 5807 5809 5811 5814 5816 5818 5821 5821 5822 5824 5826 5827 5828 5830 5832 5833 5834 5835 5837 5838 5840 5841
5676 5676 5676 5676 5676 5676 5676 5676 5677 5677 5678 5679 5680 5682 5683 5685 5687 5689 5691 5693 5695 5697 5699 5702 5704 5706 5709 5711 5714 5718 5720 5719 5722 5726 5728 5731 5734 5738 5742 5745 5747 5750 5752 5754 5756 5759 5762 5764 5767 5769 5772 5775 5777 5779 5781 5784 5787 5788 5789 5791 5793 5796 5797 5798 5800 5802 5804 5807 5810 5812 5813 5817 5819 5819 5820 5823 5823 5824 5826 5829 5831 5832 5833 5834 5835 5836 5838 5839
5669 5669 5669 5669 5669 5670 5670 5670 5670 5671 5672 5673 5674 5676 5677 5679 5681 5683 5686 5688 5690 5692 5695 5697 5699 5702 5704 5707 5710 5713 5714 5715 5719 5723 5726 5729 5732 5735 5739 5742 5744 5747 5749 5751 5754 5756 5758 5760 5762 5765 5768 5771 5774 5776 5778 5782 5785 5785 5786 5788 5789 5791 5793 5794 5796 5798 5801 5805 5809 5811 5813 5815 5817 5817 5818 5820 5821 5822 5824 5826 5829 5831 5831 5832 5833 5834 5836 5837
5661 5661 5662 5662 5662 5663 5663 5664 5664 5665 5665 5667 5668 5670 5671 5673 5675 5678 5680 5683 5685 5687 5690 5692 5695 5697 5700 5703 5706 5708 5709 5711 5714 5718 5722 5726 5730 5733 5736 5739 5741 5743 5746 5748 5751 5753 5755 5756 5758 5761 5765 5768 5771 5773 5776 5779 5781 5783 5784 5786 5787 5789 5790 5791 5793 5795 5798 5803 5807 5810 5811 5813 5814 5814 5816 5818 5819 5821 5822 5824 5827 5829 5830 5831 5832 5833 5834 5835
5653 5654 5654 5654 5655 5656 5656 5657 5658 5658 5659 5660 5662 5663 5665 5667 5669 5672 5675 5677 5680 5682 5685 5688 5690 5693 5696 5699 5701 5702 5704 5706 5709 5713 5718 5722 5725 5728 5732 5736 5738 5740 5742 5745 5747 5749 5751 5752 5755 5759 5762 5765 5767 5770 5773 5775 5778 5780 5781 5783 5785 5787 5789 5790 5792 5793 5796 5802 5806 5809 5811 5813 5813 5812 5814 5816 5818 5819 5821 5823 5825 5826 5828 5829 5830 5831 5832 5832
5644 5646 5646 5646 5647 5648 5649 5650 5651 5652 5652 5654 5655 5657 5659 5661 5663 5666 5669 5672 5674 5677 5680 5683 5686 5688 5692 5695 5696 5696 5699 5702 5705 5709 5714 5719 5722 5724 5727 5731 5734 5737 5739 5742 5744 5746 5748 5749 5751 5755 5758 5761 5764 5767 5770 5773 5775 5777 5778 5780 5782 5785 5788 5790 5791 5793 5797 5802 5806 5808 5810 5812 5811 5810 5811 5814 5816 5818 5820 5822 5822 5824 5826 5826 5827 5829 5830 5831
5635 5636 5637 5638 5639 5639 5640 5642 5644 5645 5645 5647 5648 5650 5653 5655 5657 5660 5663 5666 5669 5672 5675 5678 5681 5684 5688 5690 5690 5691 5696 5699 5701 5705 5710 5716 5719 5721 5723 5726 5730 5734 5736 5738 5740 5743 5744 5745 5748 5751 5754 5758 5761 5763 5766 5769 5772 5775 5777 5780 5781 5784 5787 5789 5791 5793 5797 5800 5803 5805 5807 5809 5809 5809 5810 5812 5814 5816 5819 5820 5821 5822 5824 5824 5825 5827 5828 5829
5626 5626 5628 5629 5631 5631 5632 5634 5635 5637 5638 5640 5641 5644 5646 5649 5651 5654 5657 5660 5663 5666 5669 5672 5676 5679 5682 5684 5685 5688 5692 5695 5697 5700 5707 5713 5716 5717 5719 5722 5726 5729 5732 5735 5737 5740 5741 5743 5745 5748 5751 5754 5756 5759 5762 5765 5769 5772 5775 5778 5781 5784 5787 5789 5791 5793 5796 5799 5801 5803 5804 5806 5807 5808 5808 5809 5812 5814 5817 5819 5819 5820 5821 5822 5824 5825 5827 5828
5616 5616 5617 5619 5621 5623 5624 5625 5627 5629 5631 5632 5634 5637 5640 5642 5645 5648 5651 5654 5657 5660 5663 5667 5671 5674 5676 5679 5682 5684 5687 5690 5693 5697 5704 5709 5712 5713 5715 5719 5722 5725 5728 5731 5733 5735 5737 5740 5743 5746 5748 5750 5752 5756 5758 5761 5767 5770 5774 5777 5780 5783 5786 5789 5791 5793 5795 5797 5799 5800 5802 5803 5804 5806 5807 5807 5809 5812 5815 5817 5818 5819 5820 5821 5822 5823 5825 5826
5606 5606 5607 5609 5611 5613 5615 5617 5618 5621 5623 5625 5627 5630 5633 5635 5638 5641 5645 5648 5651 5654 5658 5662 5665 5668 5671 5674 5677 5679 5682 5684 5687 5692 5698 5703 5706 5707 5710 5714 5717 5721 5724 5726 5729 5731 5734 5737 5740 5742 5744 5747 5749 5751 5754 5760 5767 5770 5774 5777 5780 5782 5785 5787 5789 5791 5793 5795 5797 5798 5800 5800 5801 5804 5804 5804 5806 5810 5814 5815 5816 5817 5818 5819 5820 5822 5823 5824
5595 5596 5597 5598 5600 5603 5607 5608 5610 5612 5615 5618 5620 5623 5626 5629 5632 5635 5638 5642 5645 5649 5652 5656 5659 5662 5665 5668 5670 5673 5676 5677 5680 5685 5691 5696 5700 5702 5705 5708 5713 5716 5719 5722 5725 5728 5731 5734 5736 5738 5741 5744 5747 5750 5755 5762 5767 5769 5772 5775 5777 5780 5783 5785 5786 5788 5790 5793 5795 5796 5798 5798 5799 5802 5802 5802 5804 5807 5811 5812 5814 5816 5817 5817 5819 5821 5822 5822
5583 5585 5587 5588 5589 5593 5598 5599 5601 5605 5607 5610 5613 5616 5619 5622 5625 5628 5632 5636 5640 5643 5646 5650 5654 5656 5659 5662 5665 5668 5671 5672 5675 5680 5684 5690 5693 5696 5699 5703 5708 5712 5715 5719 5723 5726 5729 5731 5734 5737 5740 5744 5746 5750 5755 5760 5763 5765 5768 5771 5773 5776 5779 5781 5784 5786 5788 5791 5793 5794 5795 5796 5798 5799 5799 5799 5801 5804 5808 5810 5813 5815 5815 5816 5818 5819 5819 5820
5571 5573 5575 5577 5579 5583 5588 5590 5593 5597 5599 5603 5606 5609 5612 5615 5618 5622 5627 5631 5634 5637 5641 5645 5649 5652 5654 5657 5661 5663 5666 5668 5672 5676 5681 5685 5688 5690 5694 5699 5703 5707 5711 5716 5719 5722 5725 5728 5732 5737 5740 5743 5745 5749 5754 5757 5759 5762 5765 5767 5768 5772 5775 5776 5780 5783 5786 5789 5790 5791 5792 5794 5796 5796 5796 5797 5798 5802 5806 5808 5811 5813 5814 5815 5816 5816 5817 5817
5558 5560 5564 5567 5569 5573 5578 5582 5585 5589 5592 5595 5599 5602 5605 5607 5612 5616 5621 5625 5628 5632 5635 5639 5644 5648 5649 5653 5657 5659 5662 5665 5668 5673 5678 5681 5683 5686 5690 5694 5698 5703 5708 5711 5715 5718 5721 5726 5731 5735 5738 5740 5743 5747 5750 5753 5756 5759 5761 5763 5767 5771 5773 5774 5777 5780 5783 5786 5787 5788 5791 5793 5794 5793 5793 5795 5797 5801 5804 5806 5808 5811 5812 5813 5813 5814 5814 5815
5545 5548 5552 5556 5559 5562 5567 5572 5576 5580 5584 5588 5592 5594 5597 5601 5606 5611 5616 5620 5623 5627 5630 5634 5639 5642 5644 5647 5651 5655 5659 5662 5665 5669 5674 5677 5681 5685 5687 5691 5695 5699 5703 5708 5712 5716 5719 5725 5730 5733 5735 5738 5741 5744 5747 5749 5752 5754 5757 5761 5766 5769 5771 5772 5776 5778 5781 5784 5785 5787 5790 5792 5792 5791 5790 5792 5796 5799 5801 5803 5805 5808 5810 5810 5811 5812 5813 5814
5531 5536 5540 5545 5549 5553 5557 5562 5567 5572 5576 5581 5585 5588 5591 5596 5601 5606 5611 5615 5618 5622 5625 5628 5632 5637 5639 5640 5645 5650 5654 5657 5661 5665 5670 5674 5678 5682 5685 5689 5692 5696 5701 5705 5710 5713 5718 5724 5728 5731 5733 5736 5739 5741 5744 5746 5748 5751 5754 5759 5764 5768 5769 5771 5774 5776 5778 5780 5781 5784 5787 5790 5790 5789 5788 5790 5794 5797 5798 5800 5803 5805 5807 5808 5809 5810 5812 5813
5518 5523 5528 5533 5539 5543 5548 5553 5559 5565 5569 5573 5578 5581 5585 5590 5596 5601 5605 5609 5613 5617 5620 5623 5628 5632 5633 5634 5639 5645 5648 5652 5656 5660 5664 5669 5674 5679 5683 5685 5689 5694 5699 5702 5706 5709 5714 5721 5725 5727 5731 5733 5736 5739 5741 5744 5747 5749 5752 5758 5764 5766 5767 5769 5771 5773 5774 5775 5777 5780 5783 5786 5787 5787 5787 5788 5791 5795 5797 5799 5801 5803 5804 5806 5807 5809 5811 5812
5507 5512 5518 5523 5529 5533 5539 5544 5550 5556 5561 5566 5571 5575 5580 5586 5591 5597 5600 5603 5608 5612 5615 5619 5625 5627 5628 5631 5636 5640 5643 5648 5652 5655 5660 5664 5670 5675 5678 5682 5688 5693 5696 5699 5701 5705 5710 5716 5721 5724 5728 5730 5733 5736 5739 5743 5745 5747 5752 5758 5762 5763 5764 5765 5767 5769 5771 5774 5776 5778 5780 5783 5784 5784 5784 5786 5789 5792 5794 5796 5798 5800 5802 5803 5806 5809 5810 5811
5496 5502 5508 5514 5519 5526 5532 5536 5541 5548 5554 5559 5565 5570 5576 5581 5586 5592 5595 5599 5604 5608 5610 5615 5620 5621 5625 5630 5632 5636 5641 5645 5649 5652 5657 5662 5666 5669 5673 5679 5685 5689 5692 5694 5697 5702 5707 5713 5717 5721 5724 5727 5730 5734 5738 5741 5743 5747 5752 5757 5759 5760 5761 5763 5765 5767 5769 5772 5774 5776 5779 5781 5781 5781 5782 5784 5786 5788 5790 5793 5795 5798 5799 5802 5805 5808 5809 5810
5487 5493 5499 5505 5513 5519 5525 5529 5534 5540 5548 5553 5559 5565 5570 5575 5581 5586 5590 5594 5600 5604 5607 5611 5614 5617 5621 5624 5627 5632 5638 5642 5646 5650 5654 5659 5663 5666 5669 5675 5681 5685 5688 5690 5695 5701 5705 5709 5714 5718 5720 5723 5728 5733 5737 5739 5742 5747 5752 5755 5757 5758 5759 5760 5763 5765 5766 5767 5770 5773 5777 5778 5778 5779 5780 5781 5783 5785 5788 5791 5794 5796 5798 5801 5805 5807 5808 5809
5480 5485 5492 5499 5507 5513 5519 5524 5528 5534 5541 5548 5554 5561 5566 5571 5576 5581 5586 5591 5597 5601 5603 5606 5609 5613 5616 5618 5622 5629 5633 5637 5641 5646 5651 5656 5660 5664 5668 5673 5677 5681 5684 5688 5693 5698 5702 5707 5712 5715 5718 5723 5727 5732 5734 5736 5742 5747 5750 5752 5755 5755 5756 5757 5760 5762 5763 5763 5766 5770 5774 5776 5776 5776 5776 5777 5780 5783 5787 5790 5793 5795 5797 5801 5804 5806 5807 5808
5474 5480 5486 5494 5502 5508 5515 5520 5522 5528 5536 5543 5550 5556 5561 5566 5572 5577 5582 5587 5593 5596 5598 5602 5606 5611 5614 5616 5621 5626 5629 5633 5636 5640 5646 5651 5655 5660 5665 5669 5673 5677 5680 5683 5688 5694 5699 5703 5707 5711 5716 5721 5725 5729 5731 5735 5741 5744 5746 5750 5753 5753 5754 5755 5756 5759 5760 5760 5763 5768 5772 5774 5773 5773 5774 5776 5779 5782 5785 5788 5791 5794 5796 5799 5802 5805 5806 5807
5469 5475 5483 5491 5499 5505 5511 5515 5519 5525 5532 5538 5545 5551 5557 5563 5568 5574 5579 5585 5590 5593 5595 5599 5603 5607 5610 5614 5619 5624 5627 5630 5632 5636 5641 5645 5649 5653 5657 5661 5666 5671 5675 5678 5684 5690 5694 5697 5702 5708 5713 5717 5721 5725 5728 5732 5738 5740 5742 5747 5750 5751 5752 5753 5754 5755 5755 5758 5763 5767 5770 5772 5771 5771 5773 5776 5778 5780 5783 5787 5790 5793 5796 5798 5801 5803 5804 5804
5465 5472 5480 5490 5497 5504 5509 5513 5517 5523 5529 5535 5542 5548 5554 5560 5565 5571 5576 5582 5587 5589 5592 5597 5601 5606 5609 5612 5617 5621 5625 5628 5630 5633 5637 5641 5645 5648 5652 5657 5661 5666 5670 5675 5681 5686 5689 5694 5700 5705 5708 5712 5716 5720 5724 5728 5733 5736 5739 5743 5746 5748 5749 5750 5751 5751 5752 5756 5762 5765 5768 5770 5769 5769 5771 5773 5775 5778 5782 5786 5789 5792 5795 5797 5799 5802 5802 5801
5463 5471 5480 5489 5497 5504 5508 5512 5516 5522 5526 5532 5539 5544 5551 5558 5564 5569 5573 5577 5582 5586 5589 5594 5598 5602 5605 5609 5613 5617 5621 5625 5628 5630 5635 5639 5643 5647 5651 5655 5660 5665 5669 5674 5678 5682 5686 5691 5694 5698 5703 5708 5712 5716 5720 5723 5728 5732 5735 5738 5741 5743 5745 5747 5748 5749 5751 5755 5760 5763 5765 5767 5767 5766 5768 5770 5774 5777 5781 5784 5788 5791 5793 5794 5797 5799 5800 5799
5464 5473 5481 5490 5497 5503 5507 5511 5516 5520 5524 5530 5536 5542 5549 5556 5562 5566 5570 5574 5579 5583 5586 5589 5594 5598 5602 5606 5611 5615 5618 5621 5624 5627 5631 5635 5639 5643 5648 5652 5657 5663 5667 5671 5676 5680 5683 5687 5691 5696 5700 5705 5709 5714 5719 5723 5727 5730 5733 5736 5738 5740 5742 5745 5747 5748 5751 5755 5758 5760 5761 5763 5764 5764 5766 5768 5772 5776 5779 5783 5785 5788 5790 5792 5794 5797 5797 5798
5469 5476 5484 5491 5497 5503 5507 5511 5515 5519 5524 5528 5534 5542 5549 5555 5559 5563 5568 5572 5576 5580 5584 5587 5591 5595 5599 5603 5607 5612 5616 5619 5621 5624 5628 5633 5637 5641 5646 5650 5655 5660 5663 5668 5673 5678 5682 5687 5692 5696 5699 5703 5707 5712 5716 5720 5724 5729 5732 5733 5735 5738 5741 5744 5746 5748 5750 5754 5755 5756 5756 5758 5760 5763 5765 5766 5769 5772 5776 5779 5782 5784 5787 5790 5792 5794 5795 5796
5474 5481 5488 5494 5499 5504 5508 5510 5514 5518 5523 5528 5535 5542 5549 5553 5557 5561 5565 5569 5574 5578 5583 5586 5589 5592 5596 5600 5604 5608 5612 5616 5618 5621 5625 5631 5636 5640 5644 5648 5652 5657 5662 5666 5671 5675 5680 5685 5690 5693 5697 5701 5705 5709 5713 5715 5720 5725 5728 5730 5733 5737 5740 5742 5745 5746 5749 5751 5752 5752 5753 5754 5757 5760 5763 5765 5766 5769 5772 5775 5779 5782 5785 5787 5790 5792 5793 5794
5480 5486 5492 5497 5501 5505 5507 5510 5513 5517 5522 5529 5537 5543 5547 5552 5557 5561 5564 5568 5573 5577 5581 5585 5588 5592 5595 5599 5602 5605 5609 5612 5615 5618 5623 5628 5633 5637 5642 5646 5650 5656 5661 5665 5669 5673 5678 5683 5686 5689 5694 5698 5703 5707 5710 5713 5717 5721 5724 5729 5733 5735 5737 5739 5741 5743 5746 5748 5749 5750 5751 5754 5755 5756 5759 5763 5765 5767 5770 5773 5776 5780 5782 5785 5788 5790 5791 5792
5487 5491 5495 5499 5502 5505 5508 5510 5513 5517 5523 5531 5537 5541 5545 5553 5559 5562 5565 5568 5572 5576 5580 5584 5588 5591 5594 5597 5601 5604 5606 5609 5612 5616 5621 5626 5631 5635 5639 5643 5647 5653 5659 5663 5667 5671 5676 5681 5684 5687 5691 5696 5699 5703 5706 5709 5713 5717 5722 5727 5730 5732 5734 5735 5737 5740 5743 5745 5745 5748 5750 5752 5753 5753 5756 5763 5765 5767 5769 5771 5774 5778 5780 5783 5786 5787 5789 5791
5492 5495 5498 5501 5503 5506 5508 5510 5514 5518 5524 5530 5535 5540 5546 5553 5560 5563 5564 5567 5572 5576 5580 5583 5586 5589 5592 5595 5599 5602 5605 5608 5611 5614 5619 5624 5629 5634 5638 5641 5645 5651 5655 5659 5664 5669 5673 5677 5681 5685 5690 5693 5696 5698 5701 5705 5709 5712 5717 5722 5727 5730 5731 5733 5735 5737 5740 5742 5742 5745 5746 5748 5749 5750 5754 5761 5763 5765 5767 5769 5772 5775 5778 5780 5783 5784 5787 5788
5497 5498 5500 5502 5504 5506 5509 5511 5515 5520 5526 5531 5536 5542 5549 5555 5559 5562 5565 5568 5572 5576 5579 5582 5584 5587 5590 5594 5597 5600 5604 5607 5610 5613 5618 5623 5628 5632 5636 5639 5644 5649 5653 5657 5661 5665 5669 5674 5679 5683 5687 5689 5691 5694 5699 5703 5706 5709 5713 5717 5722 5726 5728 5731 5733 5736 5738 5739 5740 5741 5743 5745 5747 5748 5752 5757 5759 5761 5764 5766 5769 5772 5774 5777 5779 5781 5783 5785
5500 5501 5502 5504 5505 5507 5509 5513 5517 5522 5527 5533 5539 5545 5551 5556 5559 5563 5566 5569 5572 5576 5579 5581 5584 5587 5589 5593 5596 5599 5602 5605 5608 5612 5617 5623 5627 5631 5634 5638 5642 5647 5650 5653 5657 5661 5666 5672 5676 5679 5683 5686 5688 5693 5698 5702 5705 5709 5712 5716 5719 5722 5724 5727 5730 5733 5736 5737 5738 5740 5742 5744 5746 5747 5750 5754 5757 5760 5762 5764 5766 5768 5770 5773 5775 5777 5779 5780
5502 5503 5503 5505 5506 5508 5510 5514 5519 5524 5529 5534 5541 5547 5552 5556 5560 5564 5567 5570 5573 5576 5579 5582 5585 5586 5588 5592 5595 5598 5600 5603 5606 5611 5617 5622 5627 5631 5634 5637 5641 5645 5648 5651 5655 5660 5664 5669 5673 5676 5680 5683 5687 5691 5697 5702 5704 5707 5711 5714 5717 5719 5721 5724 5727 5730 5733 5735 5736 5738 5740 5743 5745 5745 5748 5752 5756 5758 5760 5761 5763 5765 5767 5769 5771 5773 5774 5776
5503 5504 5505 5505 5507 5510 5512 5515 5520 5525 5531 5537 5543 5548 5552 5556 5560 5564 5567 5570 5573 5575 5578 5582 5585 5586 5588 5592 5595 5597 5599 5602 5606 5611 5617 5622 5626 5629 5632 5635 5639 5642 5645 5649 5654 5658 5662 5666 5670 5674 5677 5681 5685 5689 5694 5699 5702 5703 5707 5711 5714 5717 5720 5722 5725 5728 5730 5732 5733 5735 5737 5739 5741 5744 5746 5750 5754 5756 5757 5758 5760 5761 5764 5766 5767 5769 5771 5772
5505 5506 5506 5507 5508 5512 5515 5519 5524 5529 5534 5541 5546 5549 5553 5557 5561 5564 5567 5570 5573 5575 5579 5581 5584 5586 5589 5592 5595 5597 5599 5603 5607 5612 5617 5621 5625 5627 5630 5633 5636 5639 5643 5647 5652 5656 5660 5664 5667 5671 5674 5678 5682 5685 5689 5693 5697 5699 5703 5707 5711 5714 5717 5720 5722 5725 5727 5729 5731 5733 5734 5736 5739 5741 5744 5748 5751 5752 5754 5755 5757 5758 5760 5763 5765 5766 5767 5768
5508 5508 5509 5510 5511 5514 5519 5523 5527 5533 5539 5544 5547 5550 5554 5559 5562 5565 5567 5570 5573 5576 5580 5582 5583 5586 5589 5592 5595 5596 5599 5603 5607 5610 5614 5619 5623 5627 5629 5632 5634 5638 5642 5647 5652 5655 5659 5662 5666 5668 5671 5674 5677 5680 5684 5689 5692 5695 5699 5703 5708 5711 5714 5717 5719 5721 5723 5725 5727 5729 5731 5734 5737 5739 5742 5745 5747 5749 5751 5752 5754 5755 5757 5760 5761 5762 5763 5765
5511 5512 5512 5514 5515 5517 5521 5524 5529 5536 5541 5545 5548 5552 5556 5560 5563 5565 5566 5570 5573 5576 5580 5582 5583 5585 5589 5592 5595 5597 5600 5603 5606 5609 5614 5618 5621 5624 5628 5631 5632 5636 5640 5645 5650 5654 5658 5661 5665 5668 5671 5674 5676 5679 5683 5688 5690 5693 5696 5700 5704 5707 5710 5713 5715 5717 5720 5722 5724 5726 5728 5731 5734 5736 5739 5742 5744 5746 5747 5749 5751 5752 5754 5757 5758 5759 5760 5761
5515 5515 5516 5517 5519 5521 5524 5527 5533 5539 5543 5547 5550 5553 5556 5559 5562 5564 5567 5569 5572 5575 5578 5582 5584 5587 5590 5593 5595 5597 5600 5604 5607 5609 5613 5616 5619 5622 5626 5629 5631 5634 5639 5644 5648 5652 5656 5660 5663 5667 5670 5673 5675 5678 5682 5685 5687 5689 5692 5696 5700 5703 5706 5708 5711 5714 5717 5719 5720 5723 5725 5729 5731 5733 5736 5739 5740 5742 5744 5746 5747 5749 5751 5753 5754 5756 5757 5757
5518 5519 5519 5521 5523 5525 5528 5532 5536 5540 5544 5548 5552 5555 5558 5559 5561 5563 5566 5569 5572 5575 5577 5581 5584 5587 5590 5593 5595 5597 5600 5604 5608 5610 5612 5616 5619 5621 5624 5627 5630 5633 5638 5643 5647 5650 5654 5658 5662 5666 5669 5671 5673 5676 5680 5683 5684 5686 5689 5693 5696 5698 5702 5704 5707 5710 5713 5715 5717 5720 5723 5727 5729 5731 5733 5735 5737 5739 5741 5743 5744 5746 5748 5749 5751 5752 5753 5754
5521 5522 5524 5525 5528 5531 5535 5538 5541 5544 5546 5549 5552 5555 5558 5559 5561 5563 5566 5569 5572 5575 5577 5581 5584 5587 5590 5593 5595 5598 5601 5605 5608 5610 5613 5616 5618 5621 5624 5627 5629 5633 5637 5641 5645 5648 5652 5656 5660 5664 5666 5668 5671 5674 5677 5680 5681 5683 5686 5690 5693 5695 5698 5701 5704 5707 5709 5711 5715 5718 5721 5724 5726 5727 5729 5731 5733 5735 5737 5739 5741 5743 5745 5746 5747 5748 5749 5750
5525 5526 5527 5529 5532 5536 5540 5543 5546 5547 5549 5551 5553 5555 5557 5559 5562 5566 5569 5571 5574 5576 5578 5581 5584 5587 5590 5593 5595 5599 5602 5604 5607 5609 5612 5616 5618 5620 5624 5626 5629 5632 5635 5639 5643 5646 5650 5654 5658 5661 5663 5665 5668 5671 5674 5677 5679 5681 5683 5686 5690 5693 5696 5699 5702 5704 5706 5708 5711 5714 5717 5719 5722 5724 5725 5727 5729 5732 5734 5737 5739 5741 5742 5743 5744 5744 5745 5746
5529 5530 5532 5533 5536 5539 5542 5546 5548 5550 5552 5554 5555 5557 5559 5562 5565 5568 5571 5574 5576 5578 5580 5582 5585 5588 5591 5593 5596 5600 5603 5605 5607 5609 5612 5616 5618 5620 5623 5626 5628 5631 5633 5637 5641 5645 5649 5652 5655 5658 5660 5662 5665 5668 5671 5674 5677 5679 5682 5684 5687 5691 5694 5697 5700 5702 5704 5706 5708 5710 5713 5716 5719 5721 5723 5724 5726 5728 5731 5734 5736 5738 5739 5740 5740 5741 5742 5743
5533 5534 5536 5538 5541 5543 5546 5549 5551 5553 5554 5556 5558 5560 5563 5565 5568 5570 5572 5575 5577 5579 5582 5584 5586 5588 5590 5594 5597 5601 5604 5606 5608 5610 5613 5616 5617 5619 5622 5625 5628 5631 5632 5635 5638 5643 5646 5650 5653 5657 5659 5660 5663 5665 5669 5672 5676 5678 5680 5682 5685 5689 5692 5695 5698 5700 5702 5703 5705 5708 5712 5714 5716 5718 5719 5721 5723 5725 5728 5731 5733 5735 5736 5736 5737 5738 5739 5739